Japanese version Home page |
Updated on June 6, 2020 |
Profile
|
Orbital ElementsEpoch 2007 Aug. 8.0 TT = JDT 2454320.5 T 2007 July 28.35334 TT MPCW q 1.1035276 (2000.0) P Q n 0.11427143 Peri. 25.59530 -0.12299870 +0.73522143 a 4.2057580 Node 115.37576 +0.73550261 -0.38340187 e 0.7376151 Incl. 132.45948 +0.66626363 +0.55897447 P 8.63 From 111 observations 2007 Nov. 4-2016 Jan. 10, mean residual 0".5.
|
Magnitudes GraphH = 15.0 G = 0.15
|
The orbital elements are published on M.P.E.C. 2016-A101.
|